This demonstration page uses our WeatherBlox Daily Observations layout. Learn more.

Left ArrowRight Arrow

Hourly Observations for December 7, 2022

Temp ( °F °C ) Dew Point ( °F °C ) Humidity (%) Winds ( mph kmh ) Pressure ( in mb ) Visibility ( mi km ) Precip ( " mm )
12:25 am 00:25 Cloudy with Light Rain 49 9.4 46 7.8 90 90 VRB 5 7 30.31 1026 3 4 0.04 1.02
12:36 am 00:36 Cloudy with Light Rain 49 9.4 46 7.8 90 90 SSE 6 9 30.31 1026 3 5 0.05 1.27
12:45 am 00:45 Cloudy with Light Rain 49 9.4 46 7.8 90 90 SE 6 9 30.30 1026 3 4 0.06 1.52
12:52 am 00:52 Cloudy with Light Rain 49 9.4 46 7.8 90 90 Calm 30.30 1026 4 6 0.07 1.78
1:52 am 01:52 Cloudy with Light Rain 49 9.4 46 7.8 90 90 SSE 5 7 30.29 1026 10 16 0.03 0.76
2:52 am 02:52 Cloudy with Heavy Rain 49 9.4 47 8.3 93 93 SE 3 6 30.27 1025 3 5 0.11 2.79
4:00 am 04:00 Cloudy with Light Rain 50 10 48 8.9 93 93 SE 3 6 30.26 1025 4 6 0.01 0.25
4:14 am 04:14 Cloudy with Light Rain 50 10 48 8.9 93 93 ESE 3 6 30.25 1024 3 4 0.03 0.76
4:25 am 04:25 Cloudy with Light Rain 49 9.4 48 8.9 97 97 SE 5 7 30.24 1024 3 5 0.04 1.02
4:52 am 04:52 Cloudy with Light Rain 50 10 48 8.9 93 93 SSE 5 7 30.24 1024 3 4 0.07 1.78
5:26 am 05:26 Cloudy with Light Rain 50 10 49 9.4 96 96 SSE 6 9 30.23 1024 3 5 0.06 1.52
5:35 am 05:35 Cloudy with Light Rain 51 10.6 49 9.4 92 92 SSE 7 11 30.23 1024 4 6 0.06 1.52
5:52 am 05:52 Cloudy with Light Rain 51 10.6 49 9.4 92 92 SSE 3 6 30.22 1024 4 6 0.08 2.03
6:17 am 06:17 Cloudy with Light Rain 51 10.6 49 9.4 92 92 SSE 5 7 30.22 1023 4 6 0.03 0.76
6:52 am 06:52 Cloudy with Light Rain 52 11.1 50 10 93 93 SE 3 6 30.22 1023 5 8 0.07 1.78
7:28 am 07:28 Cloudy with Light Rain 51 10.6 50 10 96 96 E 3 6 30.21 1023 2 3 0.02 0.51
7:37 am 07:37 Cloudy with Light Rain 51 10.6 50 10 96 96 ESE 5 7 30.21 1023 1 2 0.03 0.76
7:49 am 07:49 Cloudy with Light Rain 52 11 50 10 94 94 Calm 30.22 1023 2 2 0.03 0.76
7:52 am 07:52 Cloudy with Light Rain 52 11.1 50 10 93 93 SSE 3 6 30.21 1023 1 2 0.03 0.76
8:06 am 08:06 Cloudy with Light Rain 52 11.1 51 10.6 97 97 S 5 7 30.21 1023 1 2 0.01 0.25
8:21 am 08:21 Cloudy with Light Rain 53 11.7 52 11.1 96 96 S 5 7 30.21 1023 1 2 0.02 0.51
8:39 am 08:39 Cloudy with Mist and Fog 54 12.2 52 11.1 93 93 S 6 9 30.20 1023 2 2 0.02 0.51
8:52 am 08:52 Cloudy with Light Rain 54 12.2 52 11.1 93 93 S 6 9 30.21 1023 2 2 0.03 0.76
9:45 am 09:45 Cloudy with Mist and Fog 55 12.8 53 11.7 93 93 S 7 11 30.19 1022 2 2 0.01 0.25
9:52 am 09:52 Cloudy with Mist and Fog 55 12.8 53 11.7 93 93 S 9 15 30.20 1023 2 2 0.01 0.25
10:52 am 10:52 Cloudy with Mist and Fog 56 13.3 54 12.2 93 93 S 10 17 30.17 1022 2 2 0.00 0.00
11:10 am 11:10 Cloudy with Light Rain 56 13.3 54 12.2 93 93 S 12 19 30.16 1021 2 3 0.01 0.13
11:24 am 11:24 Cloudy with Mist and Fog 56 13.3 54 12.2 93 93 S 12 19 30.16 1021 2 3 0.01 0.13
11:30 am 11:30 Cloudy with Mist and Fog 56 13.3 54 12.2 93 93 S 13 20 30.16 1021 2 3 0.01 0.13
11:42 am 11:42 Cloudy with Mist and Fog 56 13.3 54 12.2 93 93 S 9 15 30.15 1021 2 3 0.01 0.13
11:52 am 11:52 Cloudy with Mist and Fog 56 13.3 54 12.2 93 93 S 8 13 30.15 1021 2 3 0.01 0.13
12:12 pm 12:12 Cloudy with Mist and Fog 56 13.3 54 12.2 93 93 S 12 19 30.14 1021 2 2 0.00 0.00
12:38 pm 12:38 Cloudy with Mist and Fog 56 13.3 55 12.8 97 97 S 7 11 30.13 1020 3 4 0.00 0.00
12:48 pm 12:48 Cloudy with Light Rain 55 13 55 13 100 100 S 7 11 30.12 1020 3 5 0.01 0.13
12:52 pm 12:52 Cloudy with Light Rain 56 13.3 55 12.8 97 97 S 7 11 30.12 1020 3 5 0.01 0.13
1:52 pm 13:52 Cloudy with Light Rain 56 13.3 55 12.8 97 97 SSW 6 9 30.11 1020 5 8 0.02 0.51
2:13 pm 14:13 Cloudy with Light Rain 56 13.3 55 12.8 97 97 S 7 11 30.10 1019 6 10 0.01 0.25
2:52 pm 14:52 Cloudy with Mist and Fog 56 13.3 55 12.8 97 97 S 7 11 30.09 1019 6 10 0.01 0.25
3:00 pm 15:00 Cloudy with Mist and Fog 56 13.3 55 12.8 97 97 S 7 11 30.09 1019 3 5 0.00 0.00
3:11 pm 15:11 Cloudy with Mist and Fog 56 13.3 55 12.8 97 97 S 6 9 30.09 1019 2 3 0.00 0.00
3:20 pm 15:20 Cloudy with Mist and Fog 56 13.3 55 12.8 97 97 S 6 9 30.08 1019 2 3 0.00 0.00
3:52 pm 15:52 Cloudy with Mist and Fog 56 13.3 55 12.8 97 97 S 5 7 30.07 1018 2 3 0.00 0.00
4:01 pm 16:01 Cloudy with Mist and Fog 56 13.3 55 12.8 97 97 S 3 6 30.07 1018 2 2 0.00 0.00
4:26 pm 16:26 Cloudy with Mist and Fog 56 13.3 55 12.8 97 97 S 6 9 30.06 1018 2 3 0.00 0.00
4:37 pm 16:37 Cloudy with Mist and Fog 56 13.3 55 12.8 97 97 S 5 7 30.06 1018 2 3 0.00 0.00
4:52 pm 16:52 Cloudy with Mist and Fog 56 13.3 55 12.8 97 97 S 3 6 30.05 1018 1 2 0.00 0.00
4:59 pm 16:59 Cloudy with Mist and Fog 56 13.3 55 12.8 97 97 S 5 7 30.05 1018 2 2 0.00 0.00
5:06 pm 17:06 Mostly Clear with Mist and Fog 56 13.3 55 12.8 97 97 S 6 9 30.04 1017 1 2 0.00 0.00
5:26 pm 17:26 Cloudy with Mist and Fog 56 13.3 55 12.8 97 97 S 9 15 30.04 1017 2 2 0.00 0.00
5:47 pm 17:47 Mostly Clear with Mist and Fog 55 13 55 13 100 100 S 7 11 30.04 1017 1 2 0.00 0.00
5:48 pm 17:48 Mostly Clear with Mist and Fog 56 13.3 55 12.8 97 97 S 7 11 30.04 1017 1 2 0.00 0.00
6:05 pm 18:05 Cloudy with Mist and Fog 56 13.3 55 12.8 97 97 SSW 7 11 30.03 1017 2 2 0.00 0.00
6:19 pm 18:19 Cloudy with Mist and Fog 56 13.3 55 12.8 97 97 S 8 13 30.02 1017 2 3 0.00 0.00
6:33 pm 18:33 Cloudy with Mist and Fog 56 13.3 55 12.8 97 97 S 7 11 30.02 1017 3 5 0.00 0.00
6:52 pm 18:52 Cloudy with Mist and Fog 56 13.3 54 12.2 93 93 S 6 9 30.03 1017 4 6 0.00 0.00
7:21 pm 19:21 Cloudy with Mist and Fog 56 13.3 55 12.8 97 97 Calm 30.03 1017 3 5 0.00 0.00
7:37 pm 19:37 Cloudy with Mist and Fog 56 13.3 55 12.8 97 97 Calm 30.03 1017 3 4 0.00 0.00
7:52 pm 19:52 Cloudy with Mist and Fog 55 12.8 54 12.2 96 96 Calm 30.04 1017 4 6 0.00 0.00
8:50 pm 20:50 Cloudy 55 13 54 12 94 94 SSW 6 9 30.03 1017 8 13 0.00 0.00
8:52 pm 20:52 Cloudy 55 12.8 54 12.2 96 96 S 6 9 30.04 1017 9 14 0.00 0.00
9:22 pm 21:22 Cloudy 55 12.8 54 12.2 96 96 S 5 7 30.03 1017 10 16 0.00 0.00
9:37 pm 21:37 Mostly Cloudy with Mist and Fog 53 11.7 52 11.1 96 96 Calm 30.03 1017 3 4 0.00 0.00
9:39 pm 21:39 Mostly Cloudy with Mist and Fog 53 11.7 52 11.1 96 96 W 3 6 30.03 1017 1 2 0.00 0.00
9:44 pm 21:44 Partly Cloudy with Mist and Fog 54 12.2 52 11.1 93 93 W 3 6 30.03 1017 1 2 0.00 0.00
9:52 pm 21:52 Partly Cloudy with Mist and Fog 53 11.7 53 11.7 100 100 W 3 6 30.04 1017 3 5 0.00 0.00
10:52 pm 22:52 Mostly Cloudy 53 11.7 51 10.6 93 93 Calm 30.05 1018 8 13 0.00 0.00
11:52 pm 23:52 Partly Cloudy 53 11.7 49 9.4 86 86 W 9 15 30.05 1018 10 16 0.00 0.00

Powered by AerisWeather